Location: Caltech
(34.1382°N, 118.1253°W)
Time: 10:08:41
(UTC-07:00)

Cosmos 1758 Rocket - Visible Passes

Search period start: 28 August 2015 00:00
Search period end: 07 September 2015 00:00
Orbit: 604 x 636 km, 82.5° (Epoch: 26 August)

Date Brightness Start Highest point End Pass type
(mag) Time Alt. Az. Time Alt. Az. Time Alt. Az.
28 Aug 4.4 21:06:08 10° NNW 21:10:30 50° W 21:13:50 16° SSW visible
29 Aug 4.9 19:46:41 10° NNE 19:50:07 22° ENE 19:53:40 10° SE visible
29 Aug 5.7 21:24:17 10° NW 21:28:01 25° W 21:31:37 10° SW visible
30 Aug 4.0 20:03:39 10° N 20:07:55 42° E 20:12:11 10° SSE visible
30 Aug 6.5 21:43:19 10° WNW 21:45:28 13° W 21:47:22 10° WSW visible
31 Aug 3.5 20:21:05 10° N 20:25:35 87° E 20:30:03 10° S visible
01 Sep 4.7 20:38:51 10° NNW 20:43:10 45° W 20:47:24 10° SSW visible
02 Sep 6.0 20:57:04 10° NW 21:00:40 23° W 21:04:06 10° SW visible
03 Sep 3.9 19:36:16 10° N 19:40:36 46° E 19:44:53 10° SSE visible
03 Sep 6.7 21:16:23 10° WNW 21:18:07 12° W 21:19:32 10° WSW visible
04 Sep 3.7 19:53:45 10° N 19:58:16 86° W 20:02:41 10° S visible
05 Sep 5.0 20:11:35 10° NNW 20:15:48 41° W 20:19:58 10° SSW visible
06 Sep 6.3 20:29:53 10° NW 20:33:18 21° W 20:36:34 10° SW visible
